Location: Bottens
(46.6171°N, 6.6605°E)
Time: 17:08:56
(UTC+00:00)

Meteor 2-19 Rocket - Pass Details

Date: 20 June 2021
Orbit: 936 x 959 km, 82.5° (Epoch: 04 August)

Event Time Altitude Azimuth Distance (km) Brightness Sun altitude
Exits shadow 01:16:26 22° 183° (S) 1,935 5.5 -16.3°
Maximum altitude 01:20:32 84° 97° (E) 965 4.5 -16.0°
Drops below altitude 10° 01:26:42 10° 10° (N) 2,685 8.0 -15.5°
Sets 01:29:11 0° 10° (N) 3,631 9.0 -15.3°
